TimeEST,TemperatureF,Dew PointF,Humidity,Sea Level PressureIn,VisibilityMPH,Wind Direction,Wind SpeedMPH,Gust SpeedMPH,PrecipitationIn,Events,Conditions,WindDirDegrees,DateUTC
12:53 AM,37.0,30.0,76,30.24,10.0,SW,3.5,-,N/A,,Mostly Cloudy,230,2013-11-11 05:53:00
1:53 AM,37.0,30.0,76,30.22,10.0,SW,3.5,-,N/A,,Overcast,220,2013-11-11 06:53:00
2:53 AM,36.0,28.9,76,30.22,10.0,SW,4.6,-,N/A,,Mostly Cloudy,220,2013-11-11 07:53:00
3:53 AM,35.1,28.9,78,30.21,10.0,SSW,4.6,-,N/A,,Scattered Clouds,210,2013-11-11 08:53:00
4:53 AM,34.0,28.9,82,30.22,10.0,SSW,4.6,-,N/A,,Mostly Cloudy,210,2013-11-11 09:53:00
5:53 AM,34.0,30.0,85,30.20,10.0,South,5.8,-,N/A,,Overcast,180,2013-11-11 10:53:00
6:53 AM,34.0,28.9,82,30.19,10.0,SSW,9.2,-,N/A,,Overcast,210,2013-11-11 11:53:00
7:53 AM,35.1,28.9,78,30.19,10.0,SSW,10.4,-,N/A,,Overcast,200,2013-11-11 12:53:00
8:53 AM,37.0,28.9,73,30.17,10.0,SSW,13.8,18.4,N/A,,Overcast,200,2013-11-11 13:53:00
9:53 AM,39.0,28.9,67,30.15,10.0,SSW,12.7,23.0,N/A,,Overcast,210,2013-11-11 14:53:00
10:53 AM,39.9,30.0,68,30.12,10.0,SSW,15.0,24.2,N/A,,Overcast,200,2013-11-11 15:53:00
11:53 AM,41.0,28.9,62,30.09,10.0,SW,13.8,20.7,N/A,,Overcast,220,2013-11-11 16:53:00
12:53 PM,42.1,28.0,58,30.06,10.0,SSW,10.4,-,N/A,,Overcast,210,2013-11-11 17:53:00
1:53 PM,43.0,28.0,56,30.04,10.0,SW,9.2,16.1,N/A,,Overcast,220,2013-11-11 18:53:00
2:53 PM,44.1,28.0,53,30.03,10.0,SW,6.9,-,N/A,,Overcast,220,2013-11-11 19:53:00
3:53 PM,44.1,27.0,51,30.02,10.0,SW,6.9,-,N/A,,Overcast,230,2013-11-11 20:53:00
4:50 PM,39.2,33.8,81,30.00,10.0,WSW,13.8,19.6,0.00,Rain,Light Rain,250,2013-11-11 21:50:00
4:53 PM,39.9,33.1,77,30.04,9.0,West,15.0,-,0.00,Rain,Light Rain,260,2013-11-11 21:53:00
5:53 PM,39.0,35.1,86,30.05,5.0,West,10.4,-,0.05,Rain,Rain,260,2013-11-11 22:53:00
6:15 PM,37.4,35.6,93,30.02,6.0,West,11.5,-,0.02,Rain,Light Rain,260,2013-11-11 23:15:00
6:49 PM,37.4,35.6,93,30.02,5.0,West,13.8,-,0.06,Rain,Rain,260,2013-11-11 23:49:00
6:53 PM,37.9,35.1,89,30.06,5.0,WSW,11.5,-,0.06,Rain,Rain,250,2013-11-11 23:53:00
7:53 PM,34.0,32.0,92,30.08,2.5,NNW,9.2,-,0.06,Snow,Light Snow,340,2013-11-12 00:53:00
8:02 PM,33.8,30.2,87,30.05,1.8,North,11.5,-,0.00,Snow,Light Snow,350,2013-11-12 01:02:00
8:10 PM,33.8,30.2,87,30.05,2.0,North,10.4,-,0.00,Snow,Light Snow,350,2013-11-12 01:10:00
8:20 PM,33.8,30.2,87,30.05,1.5,North,10.4,-,0.00,Snow,Light Snow,350,2013-11-12 01:20:00
8:53 PM,32.0,30.0,92,30.11,2.0,North,8.1,17.3,0.00,Snow,Light Snow,350,2013-11-12 01:53:00
9:04 PM,32.0,28.4,87,30.07,1.5,North,13.8,20.7,0.00,Snow,Light Snow,360,2013-11-12 02:04:00
9:53 PM,30.0,28.0,92,30.13,1.2,North,11.5,20.7,0.00,Snow,Light Snow,360,2013-11-12 02:53:00
10:25 PM,30.2,28.4,93,30.10,2.0,North,12.7,23.0,0.00,Snow,Light Snow,10,2013-11-12 03:25:00
10:35 PM,30.2,26.6,86,30.11,5.0,North,11.5,18.4,0.00,Snow,Light Snow,360,2013-11-12 03:35:00
10:53 PM,28.9,26.1,89,30.16,5.0,North,13.8,20.7,0.00,,Overcast,350,2013-11-12 03:53:00
11:27 PM,28.4,26.6,93,30.12,4.0,North,9.2,19.6,0.00,Snow,Light Snow,360,2013-11-12 04:27:00
11:35 PM,28.4,26.6,93,30.12,2.5,North,9.2,-,0.00,Snow,Light Snow,360,2013-11-12 04:35:00
11:53 PM,28.9,26.1,89,30.17,2.5,North,8.1,-,0.00,Snow,Light Snow,350,2013-11-12 04:53:00
11:57 PM,28.4,26.6,93,30.13,2.5,North,9.2,-,0.00,Snow,Light Snow,360,2013-11-12 04:57:00